Istanbul, Turkey

9:27 PM EET on February 09, 2016 (GMT +0200)
Ataturk

Weather History for LTBA - August, 2012

Change the Weather History Date:

Friday, August 3, 2012

  Actual Average Record
Temperature  
Mean Temperature 80 °F -  
Max Temperature 88 °F 81 °F 93 °F (1998)
Min Temperature 73 °F 68 °F 62 °F (1997)
Cooling Degree Days 16    
Growing Degree Days 30 (Base 50)    
Moisture  
Dew Point 68 °F    
Average Humidity 68    
Maximum Humidity 94    
Minimum Humidity 43    
Precipitation  
Precipitation 0.00 in - - ()
Sea Level Pressure  
Sea Level Pressure 29.86 in    
Wind  
Wind Speed 7 mph ()    
Max Wind Speed 13 mph    
Max Gust Speed -    
Visibility 6.2 miles    
Events      
Averages and records for this station are not official NWS values.
T = Trace of Precipitation, MM = Missing Value Source: Averaged Metar Reports

Daily Weather History Graph

Daily Weather History Graph

Search for Another Location

Airport or City:

Trip Planner

Search our weather history database for the weather conditions in past years. The results will help you decide how hot, cold, wet, or windy it might be!

Date:

Astronomy

Aug. 03, 2012 Rise Set
Actual Time 6:02 AM EEST 8:18 PM EEST
Civil Twilight 5:32 AM EEST 8:48 PM EEST
Nautical Twilight 4:54 AM EEST 9:26 PM EEST
Astronomical Twilight 4:12 AM EEST 10:07 PM EEST
Moon 8:44 PM EEST (8/3) 7:25 AM EEST (8/3)
Length of Visible Light 15h 16m
Length of Day
14h 15m
Full, 98% of the Moon is Illuminated
Aug 3
Full
Aug 9
Last Quarter
Aug 17
New
Aug 24
First Quarter
Aug 31
Full

Hourly Weather History & Observations

Time (EEST) Temp. Heat Index Dew Point Humidity Pressure Visibility Wind Dir Wind Speed Gust Speed Precip Events Conditions
12:20 AM 77.0 °F - 68.0 °F 74% 29.86 in - North 6.9 mph - N/A   Clear
12:50 AM 77.0 °F - 68.0 °F 74% 29.86 in - NNW 5.8 mph - N/A   Clear
1:20 AM 77.0 °F - 68.0 °F 74% 29.86 in - NNW 6.9 mph - N/A   Clear
1:50 AM 75.2 °F - 68.0 °F 78% 29.86 in - North 8.1 mph - N/A   Clear
2:20 AM 75.2 °F - 69.8 °F 83% 29.86 in - NNW 8.1 mph - N/A   Clear
2:50 AM 75.2 °F - 69.8 °F 83% 29.86 in - North 6.9 mph - N/A   Clear
3:00 AM 75 °F - 70 °F 81% 29.86 in 6 mi North 6.9 mph - -  
3:20 AM 75.2 °F - 71.6 °F 89% 29.86 in - NNW 4.6 mph - N/A   Clear
3:50 AM 75.2 °F - 71.6 °F 89% 29.86 in - NW 4.6 mph - N/A   Clear
4:20 AM 75.2 °F - 71.6 °F 89% 29.86 in - NW 5.8 mph - N/A   Clear
4:50 AM 75.2 °F - 71.6 °F 89% 29.86 in - NW 6.9 mph - N/A   Clear
5:20 AM 73.4 °F - 71.6 °F 94% 29.86 in - NNW 8.1 mph - N/A   Clear
5:50 AM 73.4 °F - 71.6 °F 94% 29.86 in 6.2 mi NNW 9.2 mph - N/A   Scattered Clouds
6:20 AM 73.4 °F - 71.6 °F 94% 29.86 in 6.2 mi NNW 9.2 mph - N/A   Scattered Clouds
6:50 AM 75.2 °F - 71.6 °F 89% 29.86 in 6.2 mi NNW 10.4 mph - N/A   Scattered Clouds
7:20 AM 75.2 °F - 71.6 °F 89% 29.86 in 6.2 mi NNW 10.4 mph - N/A   Scattered Clouds
7:50 AM 77.0 °F - 69.8 °F 78% 29.86 in 6.2 mi North 9.2 mph - N/A   Scattered Clouds
8:20 AM 77.0 °F - 69.8 °F 78% 29.86 in 6.2 mi NNW 8.1 mph - N/A   Scattered Clouds
8:50 AM 78.8 °F - 69.8 °F 74% 29.86 in 6.2 mi NNW 6.9 mph - N/A   Scattered Clouds
9:00 AM 79 °F - 69 °F 63% 29.88 in 6 mi NNW 6.9 mph - -   Partly Cloudy
9:20 AM 80.6 °F 83.2 °F 68.0 °F 65% 29.86 in 6.2 mi North 4.6 mph - N/A   Scattered Clouds
9:50 AM 78.8 °F - 66.2 °F 65% 29.86 in 6.2 mi NW 10.4 mph - N/A   Scattered Clouds
10:20 AM 78.8 °F - 66.2 °F 65% 29.89 in 6.2 mi NNW 4.6 mph - N/A   Scattered Clouds
10:50 AM 80.6 °F 83.2 °F 68.0 °F 65% 29.86 in 6.2 mi West 4.6 mph - N/A   Scattered Clouds
11:20 AM 82.4 °F 83.9 °F 64.4 °F 54% 29.89 in 6.2 mi SW 4.6 mph - N/A   Scattered Clouds
11:50 AM 82.4 °F 83.9 °F 64.4 °F 54% 29.89 in 6.2 mi South 6.9 mph - N/A   Scattered Clouds
12:20 PM 84.2 °F 85.6 °F 64.4 °F 51% 29.89 in 6.2 mi WNW 4.6 mph - N/A   Scattered Clouds
12:50 PM 84.2 °F 86.6 °F 66.2 °F 55% 29.89 in 6.2 mi Variable 4.6 mph - N/A   Scattered Clouds
1:20 PM 82.4 °F 84.6 °F 66.2 °F 58% 29.89 in 6.2 mi West 8.1 mph - N/A   Scattered Clouds
1:50 PM 80.6 °F 83.9 °F 69.8 °F 70% 29.86 in 6.2 mi WSW 12.7 mph - N/A   Scattered Clouds
2:20 PM 82.4 °F 86.3 °F 69.8 °F 66% 29.86 in 6.2 mi WSW 10.4 mph - N/A   Scattered Clouds
2:50 PM 84.2 °F 87.3 °F 68.0 °F 58% 29.86 in 6.2 mi NW 10.4 mph - N/A   Scattered Clouds
3:00 PM 84 °F - 66 °F 46% 29.86 in 6 mi NW 11.5 mph - -   Partly Cloudy
3:20 PM 86.0 °F 88.2 °F 66.2 °F 51% 29.86 in 6.2 mi NNW 12.7 mph - N/A   Scattered Clouds
3:50 PM 86.0 °F 87.3 °F 64.4 °F 48% 29.86 in 6.2 mi NNW 10.4 mph - N/A   Scattered Clouds
4:20 PM 86.0 °F 87.3 °F 64.4 °F 48% 29.86 in 6.2 mi North 6.9 mph - N/A   Scattered Clouds
4:50 PM 86.0 °F 87.3 °F 64.4 °F 48% 29.86 in 6.2 mi NW 6.9 mph - N/A   Scattered Clouds
5:20 PM 87.8 °F 88.5 °F 62.6 °F 43% 29.86 in 6.2 mi North 6.9 mph - N/A   Scattered Clouds
5:50 PM 86.0 °F 87.3 °F 64.4 °F 48% 29.86 in 6.2 mi NNE 9.2 mph - N/A   Scattered Clouds
6:20 PM 86.0 °F 87.3 °F 64.4 °F 48% 29.86 in 6.2 mi North 12.7 mph - N/A   Scattered Clouds
6:50 PM 84.2 °F 85.6 °F 64.4 °F 51% 29.86 in 6.2 mi North 9.2 mph - N/A   Scattered Clouds
7:20 PM 84.2 °F 85.0 °F 62.6 °F 48% 29.86 in 6.2 mi Variable 8.1 mph - N/A   Scattered Clouds
7:50 PM 84.2 °F 85.6 °F 64.4 °F 51% 29.86 in 6.2 mi Variable 5.8 mph - N/A   Scattered Clouds
8:20 PM 80.6 °F 82.3 °F 64.4 °F 58% 29.86 in 6.2 mi Variable 6.9 mph - N/A   Scattered Clouds
8:50 PM 80.6 °F 82.7 °F 66.2 °F 61% 29.86 in 6.2 mi North 8.1 mph - N/A   Scattered Clouds
9:00 PM 80 °F - 66 °F 54% 29.87 in 6 mi North 8.1 mph - -   Partly Cloudy
9:20 PM 78.8 °F - 68.0 °F 69% 29.86 in - North 9.2 mph - N/A   Clear
9:50 PM 77.0 °F - 68.0 °F 74% 29.86 in - North 8.1 mph - N/A   Clear
10:20 PM 77.0 °F - 68.0 °F 74% 29.86 in - NNW 6.9 mph - N/A   Clear
10:50 PM 77.0 °F - 68.0 °F 74% 29.89 in - NNW 6.9 mph - N/A   Clear
11:20 PM 77.0 °F - 69.8 °F 78% 29.86 in - North 9.2 mph - N/A   Clear
11:50 PM 77.0 °F - 69.8 °F 78% 29.86 in - NNW 8.1 mph - N/A   Clear